DLH6KC EDDH-EDDF

Flight info

Callsign DLH6KC
Flight time 0h 44m
Altitude 30000
Route AMLUH2G AMLUH M852 DENIX DCT RIMET/N0447F310 T157 KOKEB/N0404F230 T157 KERAX KERAX5A
Aircraft A320/M-SDE3FGHIRWY/LB1

Departure

Time 2026-05-07 09:48
Airport Hamburg Helmut Schmidt Airport (EDDH)

Arrival

Time 2026-05-07 10:32
Airport Frankfurt Main Airport (EDDF)
Time Latitude Longitude Altitude Speed Heading
2026-05-07 09:32 53.63106 10.00385 46 ft 0 kts 86°
2026-05-07 09:41 53.63105 10.00376 51 ft 2 kts 86°
2026-05-07 09:41 53.63104 10.00347 51 ft 2 kts 86°
2026-05-07 09:42 53.63104 10.00343 51 ft 0 kts 86°
2026-05-07 09:42 53.63103 10.00328 51 ft 2 kts 86°
2026-05-07 09:42 53.63102 10.00299 51 ft 2 kts 95°
2026-05-07 09:42 53.63103 10.00280 51 ft 2 kts 110°
2026-05-07 09:43 53.63112 10.00260 44 ft 1 kts 171°
2026-05-07 09:43 53.63113 10.00260 45 ft 0 kts 171°
2026-05-07 09:43 53.63110 10.00261 49 ft 1 kts 171°
2026-05-07 09:43 53.63108 10.00261 49 ft 0 kts 171°
2026-05-07 09:44 53.63106 10.00262 49 ft 1 kts 171°
2026-05-07 09:45 53.63076 10.00261 51 ft 7 kts 185°
2026-05-07 09:45 53.63016 10.00205 49 ft 13 kts 212°
2026-05-07 09:45 53.62957 10.00142 49 ft 0 kts 212°
2026-05-07 09:45 53.62951 10.00136 50 ft 4 kts 212°
2026-05-07 09:46 53.62913 10.00096 50 ft 9 kts 212°
2026-05-07 09:46 53.62861 10.00011 50 ft 11 kts 238°
2026-05-07 09:46 53.62820 9.99878 47 ft 16 kts 244°
2026-05-07 09:46 53.62857 9.99753 49 ft 0 kts 330°
2026-05-07 09:47 53.62858 9.99751 49 ft 3 kts 330°
2026-05-07 09:47 53.63014 9.99615 49 ft 58 kts 333°
2026-05-07 09:47 53.63570 9.99139 50 ft 118 kts 333°
2026-05-07 09:47 53.64443 9.98385 50 ft 162 kts 333°
2026-05-07 09:48 53.65439 9.97534 593 ft 158 kts 334°
2026-05-07 09:48 53.66426 9.96705 1198 ft 160 kts 336°
2026-05-07 09:48 53.67440 9.95825 1528 ft 175 kts 335°
2026-05-07 09:48 53.68609 9.94884 1807 ft 197 kts 346°
2026-05-07 09:49 53.70020 9.94656 2115 ft 213 kts
2026-05-07 09:49 53.71502 9.94717 2999 ft 212 kts
2026-05-07 09:49 53.72834 9.95604 3785 ft 206 kts 45°
2026-05-07 09:49 53.73579 9.97599 4558 ft 203 kts 76°
2026-05-07 09:50 53.73899 9.99941 5376 ft 205 kts 77°
2026-05-07 09:50 53.74103 10.02406 5880 ft 225 kts 94°
2026-05-07 09:50 53.73507 10.04975 6279 ft 254 kts 128°
2026-05-07 09:50 53.72002 10.06704 6895 ft 271 kts 152°
2026-05-07 09:51 53.70269 10.07954 7652 ft 277 kts 156°
2026-05-07 09:51 53.68456 10.09125 8456 ft 281 kts 158°
2026-05-07 09:51 53.66608 10.10284 9256 ft 285 kts 159°
2026-05-07 09:51 53.64737 10.11466 10031 ft 290 kts 159°
2026-05-07 09:52 53.62804 10.12712 10437 ft 307 kts 159°
2026-05-07 09:52 53.60736 10.14066 10614 ft 330 kts 158°
2026-05-07 09:52 53.58528 10.15525 10849 ft 349 kts 158°
2026-05-07 09:52 53.56246 10.17046 11446 ft 355 kts 158°
2026-05-07 09:53 53.53939 10.18589 12110 ft 359 kts 158°
2026-05-07 09:53 53.51631 10.20134 12720 ft 364 kts 158°
2026-05-07 09:53 53.49264 10.21717 13375 ft 368 kts 158°
2026-05-07 09:53 53.46874 10.23311 14041 ft 372 kts 159°
2026-05-07 09:54 53.44453 10.24920 14670 ft 375 kts 159°
2026-05-07 09:54 53.42859 10.25976 15111 ft 376 kts 159°
2026-05-07 09:54 53.40965 10.27230 15587 ft 378 kts 159°
2026-05-07 09:54 53.38510 10.28853 16226 ft 380 kts 159°
2026-05-07 09:55 53.36034 10.30487 16852 ft 384 kts 160°
2026-05-07 09:55 53.33520 10.32002 17453 ft 385 kts 168°
2026-05-07 09:55 53.30895 10.32459 18000 ft 386 kts 182°
2026-05-07 09:55 53.28203 10.32344 18516 ft 388 kts 182°
2026-05-07 09:56 53.25495 10.32195 19008 ft 391 kts 182°
2026-05-07 09:56 53.22770 10.32028 19503 ft 393 kts 183°
2026-05-07 09:56 53.20023 10.31855 20012 ft 395 kts 182°
2026-05-07 09:56 53.17269 10.31687 20516 ft 397 kts 183°
2026-05-07 09:57 53.14500 10.31526 21031 ft 399 kts 183°
2026-05-07 09:57 53.11722 10.31370 21479 ft 401 kts 183°
2026-05-07 09:57 53.08923 10.31218 21910 ft 403 kts 183°
2026-05-07 09:57 53.06144 10.31072 22325 ft 406 kts 183°
2026-05-07 09:58 53.03311 10.30922 22746 ft 409 kts 183°
2026-05-07 09:58 53.00464 10.30769 23189 ft 411 kts 183°
2026-05-07 09:58 52.97602 10.30615 23628 ft 413 kts 183°
2026-05-07 09:58 52.94726 10.30456 23982 ft 415 kts 183°
2026-05-07 09:59 52.91829 10.30291 24323 ft 417 kts 183°
2026-05-07 09:59 52.88920 10.30125 24648 ft 420 kts 183°
2026-05-07 09:59 52.85995 10.29966 24998 ft 421 kts 183°
2026-05-07 09:59 52.83059 10.29809 25334 ft 423 kts 183°
2026-05-07 10:00 52.80147 10.29653 25668 ft 425 kts 183°
2026-05-07 10:00 52.77186 10.29492 25993 ft 427 kts 183°
2026-05-07 10:00 52.74209 10.29331 26329 ft 429 kts 182°
2026-05-07 10:00 52.71214 10.29172 26630 ft 432 kts 183°
2026-05-07 10:01 52.68206 10.29013 26981 ft 434 kts 182°
2026-05-07 10:01 52.65181 10.28847 27337 ft 435 kts 183°
2026-05-07 10:01 52.62152 10.28680 27674 ft 437 kts 182°
2026-05-07 10:01 52.59113 10.28520 28093 ft 437 kts 182°
2026-05-07 10:02 52.56080 10.28359 28545 ft 436 kts 182°
2026-05-07 10:02 52.53057 10.28196 29040 ft 434 kts 182°
2026-05-07 10:02 52.50085 10.28036 29521 ft 432 kts 182°
2026-05-07 10:02 52.47086 10.27876 29948 ft 432 kts 182°
2026-05-07 10:03 52.44071 10.27714 30032 ft 435 kts 182°
2026-05-07 10:03 52.37988 10.27393 30030 ft 438 kts 182°
2026-05-07 10:04 52.31900 10.27071 30030 ft 437 kts 182°
2026-05-07 10:04 52.25813 10.26745 30026 ft 438 kts 182°
2026-05-07 10:05 52.19774 10.26321 30026 ft 438 kts 188°
2026-05-07 10:05 52.13917 10.23690 30037 ft 437 kts 197°
2026-05-07 10:06 52.08107 10.20785 30028 ft 437 kts 197°
2026-05-07 10:06 52.02299 10.17872 30017 ft 437 kts 197°
2026-05-07 10:07 51.96527 10.14987 30011 ft 437 kts 197°
2026-05-07 10:07 51.90711 10.12100 30011 ft 437 kts 197°
2026-05-07 10:08 51.84892 10.09201 30007 ft 437 kts 196°
2026-05-07 10:08 51.79073 10.06314 30001 ft 438 kts 197°
2026-05-07 10:09 51.73244 10.03440 29996 ft 438 kts 196°
2026-05-07 10:09 51.67450 10.00604 29997 ft 439 kts 196°
2026-05-07 10:10 51.61604 9.97741 30003 ft 439 kts 196°
2026-05-07 10:10 51.55759 9.94876 29995 ft 439 kts 196°
2026-05-07 10:11 51.49910 9.92019 29999 ft 440 kts 195°
2026-05-07 10:11 51.44095 9.89177 29996 ft 440 kts 195°
2026-05-07 10:12 51.38243 9.86330 29998 ft 440 kts 195°
2026-05-07 10:12 51.32376 9.83493 29976 ft 441 kts 195°
2026-05-07 10:13 51.26493 9.80655 29971 ft 442 kts 195°
2026-05-07 10:13 51.20633 9.77830 29971 ft 443 kts 195°
2026-05-07 10:14 51.14729 9.74994 29038 ft 445 kts 196°
2026-05-07 10:14 51.11777 9.73582 28455 ft 440 kts 196°
2026-05-07 10:14 51.08855 9.72186 27848 ft 437 kts 196°
2026-05-07 10:14 51.05950 9.70802 27227 ft 435 kts 196°
2026-05-07 10:15 51.03056 9.69422 26626 ft 433 kts 196°
2026-05-07 10:15 51.00175 9.68045 26018 ft 431 kts 196°
2026-05-07 10:15 50.97314 9.66677 25417 ft 429 kts 197°
2026-05-07 10:15 50.94465 9.65317 24819 ft 427 kts 197°
2026-05-07 10:16 50.91666 9.63986 24234 ft 425 kts 197°
2026-05-07 10:16 50.88834 9.62643 23645 ft 423 kts 197°
2026-05-07 10:16 50.86020 9.61311 22982 ft 421 kts 197°
2026-05-07 10:16 50.83229 9.59993 22418 ft 417 kts 197°
2026-05-07 10:17 50.80466 9.58688 21842 ft 413 kts 197°
2026-05-07 10:17 50.77728 9.57395 21312 ft 409 kts 197°
2026-05-07 10:17 50.75018 9.56116 20772 ft 406 kts 197°
2026-05-07 10:17 50.72319 9.54841 20285 ft 403 kts 197°
2026-05-07 10:18 50.69643 9.53584 19780 ft 400 kts 197°
2026-05-07 10:18 50.66986 9.52340 19286 ft 397 kts 197°
2026-05-07 10:18 50.64382 9.51122 18799 ft 394 kts 197°
2026-05-07 10:18 50.61766 9.49897 18287 ft 391 kts 197°
2026-05-07 10:19 50.59170 9.48679 17739 ft 388 kts 197°
2026-05-07 10:19 50.58378 9.48308 17578 ft 386 kts 197°
2026-05-07 10:19 50.55815 9.47105 17060 ft 382 kts 197°
2026-05-07 10:19 50.53279 9.45915 16535 ft 379 kts 198°
2026-05-07 10:20 50.50763 9.44738 16010 ft 375 kts 198°
2026-05-07 10:20 50.48268 9.43573 15467 ft 373 kts 198°
2026-05-07 10:20 50.45818 9.42430 14937 ft 371 kts 198°
2026-05-07 10:20 50.43346 9.41280 14391 ft 370 kts 198°
2026-05-07 10:21 50.40888 9.40137 13849 ft 368 kts 198°
2026-05-07 10:21 50.38438 9.38999 13260 ft 366 kts 198°
2026-05-07 10:21 50.35999 9.37913 12716 ft 363 kts 193°
2026-05-07 10:21 50.33499 9.37438 12185 ft 362 kts 181°
2026-05-07 10:22 50.31006 9.37761 11656 ft 359 kts 169°
2026-05-07 10:22 50.28619 9.38844 11159 ft 356 kts 160°
2026-05-07 10:22 50.26276 9.39736 11011 ft 340 kts 180°
2026-05-07 10:22 50.24049 9.38992 10883 ft 323 kts 209°
2026-05-07 10:23 50.22439 9.36802 10763 ft 306 kts 239°
2026-05-07 10:23 50.21709 9.33790 10622 ft 293 kts 261°
2026-05-07 10:23 50.21402 9.30671 10333 ft 289 kts 263°
2026-05-07 10:23 50.21114 9.27587 10115 ft 285 kts 263°
2026-05-07 10:24 50.20830 9.24547 9986 ft 283 kts 263°
2026-05-07 10:24 50.20543 9.21477 9526 ft 287 kts 262°
2026-05-07 10:24 50.20094 9.18439 9032 ft 291 kts 255°
2026-05-07 10:24 50.19443 9.15467 8782 ft 287 kts 251°
2026-05-07 10:25 50.18725 9.12574 8440 ft 285 kts 250°
2026-05-07 10:25 50.18008 9.09751 7982 ft 282 kts 250°
2026-05-07 10:25 50.17291 9.06897 7237 ft 285 kts 251°
2026-05-07 10:25 50.16579 9.04002 6585 ft 284 kts 251°
2026-05-07 10:26 50.15907 9.01224 6488 ft 263 kts 251°
2026-05-07 10:26 50.15272 8.98595 6409 ft 257 kts 252°
2026-05-07 10:26 50.14656 8.95987 6302 ft 256 kts 252°
2026-05-07 10:26 50.14048 8.93389 6108 ft 255 kts 252°
2026-05-07 10:27 50.13442 8.90803 5783 ft 253 kts 252°
2026-05-07 10:27 50.12838 8.88230 5420 ft 252 kts 252°
2026-05-07 10:27 50.12241 8.85695 5060 ft 245 kts 252°
2026-05-07 10:27 50.11664 8.83243 4715 ft 237 kts 252°
2026-05-07 10:28 50.11104 8.80869 4366 ft 230 kts 252°
2026-05-07 10:28 50.10569 8.78597 4044 ft 224 kts 252°
2026-05-07 10:28 50.10039 8.76354 3716 ft 219 kts 253°
2026-05-07 10:28 50.09521 8.74163 3440 ft 211 kts 253°
2026-05-07 10:29 50.09027 8.72080 3120 ft 199 kts 252°
2026-05-07 10:29 50.08560 8.70105 2827 ft 190 kts 252°
2026-05-07 10:29 50.08117 8.68237 2560 ft 176 kts 252°
2026-05-07 10:30 50.07333 8.64936 2102 ft 151 kts 253°
2026-05-07 10:30 50.07065 8.63806 1920 ft 147 kts 252°
2026-05-07 10:30 50.06847 8.62894 1785 ft 144 kts 253°
2026-05-07 10:30 50.06507 8.61457 1572 ft 143 kts 253°
2026-05-07 10:31 50.06163 8.60012 1368 ft 142 kts 252°
2026-05-07 10:31 50.05818 8.58569 1148 ft 142 kts 252°
2026-05-07 10:31 50.05487 8.57114 891 ft 143 kts 250°
2026-05-07 10:31 50.05135 8.55688 698 ft 140 kts 252°
2026-05-07 10:32 50.04794 8.54265 521 ft 140 kts 252°
2026-05-07 10:32 50.04457 8.52853 354 ft 134 kts 252°
2026-05-07 10:32 50.04196 8.51749 353 ft 82 kts 250°
2026-05-07 10:32 50.04036 8.51104 353 ft 27 kts 239°
2026-05-07 10:33 50.03929 8.50955 345 ft 16 kts 222°
2026-05-07 10:33 50.03854 8.50855 351 ft 0 kts 208°
2026-05-07 10:33 50.03848 8.50850 352 ft 5 kts 210°
2026-05-07 10:34 50.03786 8.50857 352 ft 14 kts 147°
2026-05-07 10:34 50.03733 8.51025 352 ft 21 kts 115°
2026-05-07 10:34 50.03671 8.51225 350 ft 19 kts 116°
2026-05-07 10:34 50.03619 8.51388 352 ft 19 kts 116°
2026-05-07 10:35 50.03562 8.51570 353 ft 18 kts 116°
2026-05-07 10:35 50.03513 8.51739 349 ft 13 kts 107°
2026-05-07 10:35 50.03519 8.51901 348 ft 18 kts 83°
2026-05-07 10:35 50.03536 8.52114 355 ft 21 kts 82°
2026-05-07 10:36 50.03552 8.52298 349 ft 11 kts 77°
2026-05-07 10:36 50.03557 8.52329 345 ft 3 kts 76°